Time,TemperatureF,DewpointF,PressureIn,WindDirection,WindDirectionDegrees,WindSpeedMPH,WindSpeedGustMPH,Humidity,HourlyPrecipIn,Conditions,Clouds,dailyrainin,SoftwareType,DateUTC
2013-05-10 00:13:00,50.2,48.0,30.10,SSE,147,0.0,0.0,93,0.01,,,0.37,weatherlink.com 1.10,2013-05-10 04:13:00,
2013-05-10 00:28:00,49.7,48.0,30.10,SSE,147,0.0,0.0,93,0.01,,,0.37,weatherlink.com 1.10,2013-05-10 04:28:00,
2013-05-10 00:43:00,49.4,48.0,30.10,SSE,147,0.0,0.0,94,0.01,,,0.38,weatherlink.com 1.10,2013-05-10 04:43:00,
2013-05-10 00:58:00,49.4,48.0,30.11,SSE,147,0.0,0.0,95,0.01,,,0.38,weatherlink.com 1.10,2013-05-10 04:58:00,
2013-05-10 01:13:00,48.9,47.0,30.11,SSE,147,0.0,0.0,94,0.01,,,0.38,weatherlink.com 1.10,2013-05-10 05:13:00,
2013-05-10 01:29:00,48.7,47.0,30.11,SSE,147,0.0,0.0,95,0.01,,,0.38,weatherlink.com 1.10,2013-05-10 05:29:00,
2013-05-10 01:43:00,48.4,47.0,30.11,SSE,147,0.0,0.0,94,0.01,,,0.39,weatherlink.com 1.10,2013-05-10 05:43:00,
2013-05-10 01:58:00,47.9,46.0,30.11,SSE,147,0.0,0.0,94,0.01,,,0.39,weatherlink.com 1.10,2013-05-10 05:58:00,
2013-05-10 02:13:00,47.8,47.0,30.10,SSE,147,0.0,0.0,95,0.01,,,0.39,weatherlink.com 1.10,2013-05-10 06:13:00,
2013-05-10 02:28:00,47.6,46.0,30.10,SSE,147,0.0,0.0,95,0.01,,,0.39,weatherlink.com 1.10,2013-05-10 06:28:00,
2013-05-10 02:43:00,47.5,46.0,30.10,SSE,147,0.0,0.0,95,0.01,,,0.40,weatherlink.com 1.10,2013-05-10 06:43:00,
2013-05-10 02:58:00,47.3,46.0,30.09,SSE,147,0.0,0.0,95,0.01,,,0.40,weatherlink.com 1.10,2013-05-10 06:58:00,
2013-05-10 03:13:00,47.1,46.0,30.09,SSE,147,0.0,0.0,95,0.01,,,0.40,weatherlink.com 1.10,2013-05-10 07:13:00,
2013-05-10 03:28:00,46.9,46.0,30.09,SSE,147,0.0,0.0,95,0.01,,,0.40,weatherlink.com 1.10,2013-05-10 07:28:00,
2013-05-10 03:43:00,46.8,46.0,30.09,SSE,147,0.0,0.0,95,0.01,,,0.41,weatherlink.com 1.10,2013-05-10 07:43:00,
2013-05-10 03:58:00,46.7,45.0,30.08,SSE,147,0.0,0.0,95,0.01,,,0.41,weatherlink.com 1.10,2013-05-10 07:58:00,
2013-05-10 04:13:00,46.6,45.0,30.08,SSE,147,0.0,0.0,95,0.01,,,0.41,weatherlink.com 1.10,2013-05-10 08:13:00,
2013-05-10 04:28:00,46.5,45.0,30.08,SSE,147,0.0,0.0,95,0.01,,,0.00,weatherlink.com 1.10,2013-05-10 08:28:00,
2013-05-10 04:43:00,46.5,45.0,30.08,SSE,147,0.0,0.0,95,0.00,,,0.00,weatherlink.com 1.10,2013-05-10 08:43:00,
2013-05-10 04:58:00,46.4,45.0,30.08,SSE,147,0.0,0.0,96,0.01,,,0.01,weatherlink.com 1.10,2013-05-10 08:58:00,
2013-05-10 05:13:00,46.4,45.0,30.08,SSE,147,0.0,0.0,96,0.01,,,0.01,weatherlink.com 1.10,2013-05-10 09:13:00,
2013-05-10 05:28:00,46.3,45.0,30.08,SSE,147,0.0,1.0,96,0.01,,,0.01,weatherlink.com 1.10,2013-05-10 09:28:00,
2013-05-10 05:43:00,46.4,45.0,30.08,SSE,147,0.0,1.0,96,0.01,,,0.01,weatherlink.com 1.10,2013-05-10 09:43:00,
2013-05-10 05:58:00,46.2,45.0,30.08,SSE,147,0.0,0.0,96,0.01,,,0.02,weatherlink.com 1.10,2013-05-10 09:58:00,
2013-05-10 06:15:00,46.1,45.0,30.08,SSE,147,0.0,0.0,96,0.01,,,0.02,weatherlink.com 1.10,2013-05-10 10:15:00,
2013-05-10 06:28:00,46.1,45.0,30.08,SSE,147,0.0,0.0,96,0.01,,,0.02,weatherlink.com 1.10,2013-05-10 10:28:00,
2013-05-10 06:43:00,45.9,45.0,30.09,SSE,147,0.0,1.0,96,0.01,,,0.02,weatherlink.com 1.10,2013-05-10 10:43:00,
2013-05-10 06:58:00,45.8,45.0,30.09,SSE,147,0.0,1.0,96,0.00,,,0.02,weatherlink.com 1.10,2013-05-10 10:58:00,
2013-05-10 07:13:00,46.0,45.0,30.09,SSE,147,0.0,0.0,96,0.00,,,0.02,weatherlink.com 1.10,2013-05-10 11:13:00,
2013-05-10 07:28:00,46.1,45.0,30.09,SSE,147,0.0,0.0,96,0.01,,,0.03,weatherlink.com 1.10,2013-05-10 11:28:00,
2013-05-10 07:43:00,46.5,46.0,30.08,SSE,147,0.0,0.0,96,0.01,,,0.03,weatherlink.com 1.10,2013-05-10 11:43:00,
2013-05-10 07:58:00,47.0,46.0,30.08,SSE,147,0.0,0.0,97,0.01,,,0.03,weatherlink.com 1.10,2013-05-10 11:58:00,
2013-05-10 08:13:00,48.3,48.0,30.07,SSE,147,0.0,0.0,97,0.01,,,0.03,weatherlink.com 1.10,2013-05-10 12:13:00,
2013-05-10 08:28:00,49.7,49.0,30.06,SSE,147,0.0,0.0,97,0.01,,,0.04,weatherlink.com 1.10,2013-05-10 12:28:00,
2013-05-10 08:43:00,51.2,50.0,30.07,SSE,147,0.0,0.0,97,0.01,,,0.04,weatherlink.com 1.10,2013-05-10 12:43:00,
2013-05-10 08:58:00,53.3,52.0,30.07,SSE,147,0.0,1.0,95,0.01,,,0.04,weatherlink.com 1.10,2013-05-10 12:58:00,
2013-05-10 09:13:00,55.5,53.0,30.06,SSE,147,0.0,1.0,92,0.01,,,0.04,weatherlink.com 1.10,2013-05-10 13:13:00,
2013-05-10 09:28:00,57.8,54.0,30.06,SSE,147,0.0,1.0,87,0.00,,,0.04,weatherlink.com 1.10,2013-05-10 13:28:00,
2013-05-10 09:43:00,59.6,55.0,30.05,SSE,147,0.0,1.0,85,0.01,,,0.05,weatherlink.com 1.10,2013-05-10 13:43:00,
2013-05-10 09:58:00,61.7,56.0,30.05,SE,145,0.0,1.0,82,0.01,,,0.05,weatherlink.com 1.10,2013-05-10 13:58:00,
2013-05-10 10:14:00,64.9,57.0,30.04,SE,143,1.0,2.0,76,0.01,,,0.05,weatherlink.com 1.10,2013-05-10 14:14:00,
2013-05-10 10:29:00,66.9,58.0,30.04,SE,143,0.0,2.0,72,0.02,,,0.06,weatherlink.com 1.10,2013-05-10 14:29:00,
2013-05-10 10:44:00,68.9,56.0,30.03,SW,217,0.0,5.0,64,0.01,,,0.06,weatherlink.com 1.10,2013-05-10 14:44:00,
2013-05-10 10:59:00,71.7,54.0,30.03,West,269,0.0,5.0,53,0.01,,,0.06,weatherlink.com 1.10,2013-05-10 14:59:00,
2013-05-10 11:14:00,73.4,56.0,30.03,WSW,255,1.0,5.0,54,0.01,,,0.06,weatherlink.com 1.10,2013-05-10 15:14:00,
2013-05-10 11:29:00,73.6,56.0,30.03,SW,230,0.0,8.0,54,0.01,,,0.07,weatherlink.com 1.10,2013-05-10 15:29:00,
2013-05-10 11:44:00,73.4,57.0,30.03,West,271,2.0,5.0,56,0.01,,,0.07,weatherlink.com 1.10,2013-05-10 15:44:00,
2013-05-10 11:59:00,74.4,57.0,30.02,SW,225,5.0,6.0,54,0.02,,,0.08,weatherlink.com 1.10,2013-05-10 15:59:00,
2013-05-10 12:14:00,74.7,56.0,30.02,SW,223,4.0,10.0,52,0.02,,,0.08,weatherlink.com 1.10,2013-05-10 16:14:00,
2013-05-10 12:29:00,75.2,56.0,30.02,West,267,5.0,6.0,52,0.02,,,0.09,weatherlink.com 1.10,2013-05-10 16:29:00,
2013-05-10 12:44:00,73.9,56.0,30.01,WSW,239,6.0,12.0,53,0.02,,,0.09,weatherlink.com 1.10,2013-05-10 16:44:00,
2013-05-10 12:59:00,74.6,58.0,30.00,NW,321,0.0,4.0,56,0.02,,,0.10,weatherlink.com 1.10,2013-05-10 16:59:00,
2013-05-10 13:14:00,74.1,56.0,30.00,SW,227,1.0,5.0,54,0.02,,,0.10,weatherlink.com 1.10,2013-05-10 17:14:00,
2013-05-10 13:29:00,73.9,57.0,29.99,NW,304,1.0,6.0,56,0.02,,,0.11,weatherlink.com 1.10,2013-05-10 17:29:00,
2013-05-10 13:44:00,74.2,57.0,29.99,ENE,77,1.0,8.0,55,0.03,,,0.12,weatherlink.com 1.10,2013-05-10 17:44:00,
2013-05-10 13:59:00,74.2,57.0,29.98,SW,216,3.0,9.0,55,0.02,,,0.12,weatherlink.com 1.10,2013-05-10 17:59:00,
2013-05-10 14:14:00,75.0,58.0,29.98,WSW,257,1.0,6.0,56,0.03,,,0.13,weatherlink.com 1.10,2013-05-10 18:14:00,
2013-05-10 14:29:00,73.3,57.0,29.97,WSW,238,0.0,6.0,58,0.02,,,0.13,weatherlink.com 1.10,2013-05-10 18:29:00,
2013-05-10 14:44:00,70.6,61.0,29.98,NE,50,1.0,6.0,71,0.02,,,0.14,weatherlink.com 1.10,2013-05-10 18:44:00,
2013-05-10 14:59:00,67.5,62.0,29.97,NE,50,0.0,1.0,82,0.02,,,0.14,weatherlink.com 1.10,2013-05-10 18:59:00,
2013-05-10 15:14:00,65.7,61.0,29.97,ENE,77,2.0,3.0,84,0.01,,,0.14,weatherlink.com 1.10,2013-05-10 19:14:00,
2013-05-10 15:29:00,63.7,60.0,29.98,ESE,114,3.0,5.0,86,0.02,,,0.15,weatherlink.com 1.10,2013-05-10 19:29:00,
2013-05-10 15:44:00,62.0,59.0,29.98,East,84,0.0,6.0,88,0.01,,,0.15,weatherlink.com 1.10,2013-05-10 19:44:00,
2013-05-10 15:59:00,60.9,59.0,29.97,West,279,0.0,4.0,93,0.02,,,0.16,weatherlink.com 1.10,2013-05-10 19:59:00,
2013-05-10 16:14:00,61.0,59.0,29.98,North,349,0.0,2.0,94,0.02,,,0.16,weatherlink.com 1.10,2013-05-10 20:14:00,
2013-05-10 16:29:00,60.9,59.0,29.97,North,5,0.0,2.0,94,0.01,,,0.16,weatherlink.com 1.10,2013-05-10 20:29:00,
2013-05-10 16:44:00,60.7,59.0,29.98,ESE,118,1.0,9.0,94,0.01,,,0.16,weatherlink.com 1.10,2013-05-10 20:44:00,
2013-05-10 16:59:00,60.6,59.0,29.97,West,272,0.0,2.0,94,0.01,,,0.17,weatherlink.com 1.10,2013-05-10 20:59:00,
2013-05-10 17:14:00,61.1,59.0,29.97,East,94,1.0,5.0,94,0.01,,,0.17,weatherlink.com 1.10,2013-05-10 21:14:00,
2013-05-10 17:29:00,61.3,60.0,29.98,East,93,0.0,3.0,94,0.01,,,0.17,weatherlink.com 1.10,2013-05-10 21:29:00,
2013-05-10 17:44:00,61.3,60.0,29.97,ESE,107,0.0,3.0,94,0.01,,,0.17,weatherlink.com 1.10,2013-05-10 21:44:00,
2013-05-10 17:59:00,61.1,59.0,29.98,ENE,57,0.0,3.0,93,0.01,,,0.18,weatherlink.com 1.10,2013-05-10 21:59:00,
2013-05-10 18:14:00,60.6,59.0,29.98,NE,49,0.0,2.0,94,0.01,,,0.18,weatherlink.com 1.10,2013-05-10 22:14:00,
2013-05-10 18:29:00,60.6,59.0,29.97,NE,50,0.0,0.0,95,0.01,,,0.18,weatherlink.com 1.10,2013-05-10 22:29:00,
2013-05-10 18:44:00,60.6,59.0,29.97,NE,50,2.0,2.0,95,0.02,,,0.19,weatherlink.com 1.10,2013-05-10 22:44:00,
2013-05-10 18:59:00,60.4,59.0,29.97,NNW,331,0.0,2.0,95,0.01,,,0.19,weatherlink.com 1.10,2013-05-10 22:59:00,
2013-05-10 19:14:00,60.2,59.0,29.97,NNW,331,0.0,1.0,95,0.01,,,0.19,weatherlink.com 1.10,2013-05-10 23:14:00,
2013-05-10 19:29:00,60.1,59.0,29.96,NW,321,0.0,3.0,95,0.02,,,0.20,weatherlink.com 1.10,2013-05-10 23:29:00,
2013-05-10 19:44:00,60.0,59.0,29.97,NW,321,0.0,1.0,95,0.01,,,0.20,weatherlink.com 1.10,2013-05-10 23:44:00,
2013-05-10 19:59:00,59.8,59.0,29.97,NW,321,0.0,2.0,96,0.01,,,0.20,weatherlink.com 1.10,2013-05-10 23:59:00,
2013-05-10 20:14:00,59.5,58.0,29.96,NW,321,0.0,1.0,95,0.01,,,0.20,weatherlink.com 1.10,2013-05-11 00:14:00,
2013-05-10 20:29:00,59.3,58.0,29.97,NW,321,0.0,1.0,96,0.01,,,0.21,weatherlink.com 1.10,2013-05-11 00:29:00,
2013-05-10 20:44:00,59.1,58.0,29.97,NW,321,0.0,2.0,96,0.01,,,0.21,weatherlink.com 1.10,2013-05-11 00:44:00,
2013-05-10 21:01:00,59.0,58.0,29.97,NW,321,0.0,0.0,96,0.01,,,0.21,weatherlink.com 1.10,2013-05-11 01:01:00,
2013-05-10 21:14:00,58.9,58.0,29.97,NW,321,0.0,1.0,96,0.02,,,0.22,weatherlink.com 1.10,2013-05-11 01:14:00,
2013-05-10 21:29:00,58.6,58.0,29.96,NW,321,0.0,1.0,96,0.01,,,0.22,weatherlink.com 1.10,2013-05-11 01:29:00,
2013-05-10 21:44:00,58.4,57.0,29.96,NW,321,0.0,0.0,96,0.01,,,0.22,weatherlink.com 1.10,2013-05-11 01:44:00,
2013-05-10 22:00:00,58.3,57.0,29.97,NW,321,0.0,1.0,96,0.01,,,0.22,weatherlink.com 1.10,2013-05-11 02:00:00,
2013-05-10 22:15:00,58.2,57.0,29.97,NE,53,0.0,3.0,96,0.01,,,0.23,weatherlink.com 1.10,2013-05-11 02:15:00,
2013-05-10 22:30:00,58.2,57.0,29.97,NE,53,0.0,1.0,96,0.01,,,0.23,weatherlink.com 1.10,2013-05-11 02:30:00,
2013-05-10 22:45:00,58.0,57.0,29.97,NE,53,0.0,1.0,96,0.01,,,0.23,weatherlink.com 1.10,2013-05-11 02:45:00,
2013-05-10 23:00:00,57.8,57.0,29.96,NE,53,0.0,0.0,96,0.02,,,0.24,weatherlink.com 1.10,2013-05-11 03:00:00,
2013-05-10 23:15:00,57.8,57.0,29.97,NE,53,0.0,1.0,96,0.01,,,0.24,weatherlink.com 1.10,2013-05-11 03:15:00,
2013-05-10 23:30:00,57.8,57.0,29.96,NE,53,0.0,1.0,96,0.01,,,0.24,weatherlink.com 1.10,2013-05-11 03:30:00,
2013-05-10 23:45:00,57.5,56.0,29.96,NE,53,0.0,0.0,96,0.01,,,0.24,weatherlink.com 1.10,2013-05-11 03:45:00,